Yakima, WA
on Thursday, November 8, 2012

Thursday
Previous Day Next Day
Daily Summary
 ActualAverageRecord
Temperature
Mean Temperature °F 40°F  
Max Temperature 50°F 52°F 70°F (1995)
Min Temperature 27°F 29°F 17°F (1993)
Degree Days
Heating Degree Days 26 25  
Month to date heating degree days 132 188  
Since 1 July heating degree days 669 892  
Cooling Degree Days 0 0  
Month to date cooling degree days 0 0  
Year to date cooling degree days 667 472  
Moisture
Dew Point 28°F   
Average Humidity 66    
Maximum Humidity 85    
Minimum Humidity 46    
Precipitation
Precipitation T in 0.03 in 0.52 in (1968)
Month to date precipitation 0.06 0.23  
Year to date precipitation 6.59 5.90  
Snow
Snow 0.00 in 0.00 in 1.20 in (1973)
Month to date snowfall 0.0 0.2  
Year to date snowfall 21.5 8.9  
Since 1 July snowfall 0.0 0.3  
Snow Depth 0.00 in   
Wind
Wind Speed 7 mph   
Max Wind Speed 18 mph   
Max Gust Speed 116 mph   
Visibility 10 miles   
Events Rain   

Key: T is trace of precipitation, MM is missing value
Source: NWS Daily Summary
Time(PST)TemperatureDew PointHumidity Pressure Visibility Wind DirectionWind SpeedGust SpeedPrecipitationEvents Conditions
12:53 AM 32.0°F 27.0°F 82% 29.94 in 10.0 miles West 9.2 mph - N/A   Scattered Clouds
1:53 AM 32.0°F 27.0°F 82% 29.93 in 10.0 miles West 8.1 mph - N/A   Partly Cloudy
2:53 AM 30.9°F 26.1°F 82% 29.92 in 10.0 miles West 9.2 mph - N/A   Mostly Cloudy
3:53 AM 28.9°F 25.0°F 85% 29.90 in 10.0 miles WNW 5.8 mph - N/A   Partly Cloudy
4:53 AM 28.0°F 25.0°F 88% 29.88 in 10.0 miles West 8.1 mph - N/A   Clear
5:53 AM 28.0°F 24.1°F 85% 29.88 in 10.0 miles WNW 6.9 mph - N/A   Scattered Clouds
6:53 AM 30.0°F 26.1°F 85% 29.86 in 10.0 miles West 5.8 mph - N/A   Mostly Cloudy
7:53 AM 33.1°F 28.0°F 82% 29.85 in 10.0 miles West 8.1 mph - N/A   Mostly Cloudy
8:53 AM 39.0°F 30.0°F 70% 29.84 in 10.0 miles West 6.9 mph - N/A   Overcast
9:53 AM 42.1°F 30.9°F 65% 29.83 in 10.0 miles WSW 5.8 mph - N/A   Overcast
10:53 AM 44.1°F 32.0°F 63% 29.82 in 10.0 miles WSW 4.6 mph - 0.00 in Rain Light Rain
11:53 AM 46.9°F 32.0°F 56% 29.80 in 10.0 miles West 5.8 mph - N/A   Overcast
12:53 PM 48.0°F 32.0°F 54% 29.79 in 10.0 miles West 6.9 mph - 0.00 in   Overcast
1:53 PM 48.9°F 30.9°F 50% 29.77 in 10.0 miles West 4.6 mph - 0.00 in Rain Light Rain
2:53 PM 50.0°F 30.0°F 46% 29.77 in 10.0 miles WNW 4.6 mph - 0.00 in Rain Light Rain
3:53 PM 46.0°F 32.0°F 58% 29.78 in 10.0 miles WSW 9.2 mph - 0.00 in   Scattered Clouds
4:53 PM 43.0°F 30.0°F 60% 29.78 in 10.0 miles WSW 8.1 mph - N/A   Scattered Clouds
5:53 PM 43.0°F 30.0°F 60% 29.80 in 10.0 miles North 4.6 mph - 0.00 in   Mostly Cloudy
6:53 PM 37.9°F 28.9°F 70% 29.79 in 10.0 miles WNW 8.1 mph - 0.00 in   Scattered Clouds
7:53 PM 34.0°F 28.0°F 79% 29.80 in 10.0 miles WNW 5.8 mph - 0.00 in   Clear
8:53 PM 30.9°F 25.0°F 79% 29.81 in 10.0 miles WSW 5.8 mph - N/A   Clear
9:53 PM 30.0°F 26.1°F 85% 29.81 in 10.0 miles WNW 6.9 mph - N/A   Scattered Clouds
10:53 PM 30.9°F 26.1°F 82% 29.81 in 10.0 miles West 6.9 mph - N/A   Scattered Clouds
11:53 PM 28.9°F 25.0°F 85% 29.81 in 10.0 miles West 6.9 mph - N/A   Partly Cloudy
Moon Phase
Nov. 08 Nov. 13 Nov. 20 Nov. 28 Dec. 06
Sunrise:06:54 AM (PST) Moon Rise:12:35 AM (PST)11/8
Sunset:04:36 PM (PST) Moon Set:01:38 PM (PST)11/8

Copyright © 2014 The Weather Underground, Inc.